Regional Weather Roundup
Issued by NWS

Home | Current Version | Previous Version | Graphics & Text | Print | Product List | Glossary On
Versions: 1 2 3 4 5 6 7 8 9 10 11 12 13 14 15 16 17 18 19 20 21 22 23 24 25 26 27 28 29 30 31 32 33 34 35 36 37 38 39 40 41 42 43 44 45 46 47 48 49 50
000
ASUS43 KFSD 191902
RWRSD

WEATHER ROUNDUP FOR SOUTH DAKOTA
NATIONAL WEATHER SERVICE SIOUX FALLS SD
200 PM CDT WED JUL 19 2017

NOTE: "FAIR" INDICATES FEW OR NO CLOUDS BELOW 12,000 FEET WITH NO
SIGNIFICANT WEATHER AND/OR OBSTRUCTIONS TO VISIBILITY.


SDZ001>005-009-010-012>017-192000-
NORTHWEST AND NORTH CENTRAL SOUTH DAKOTA

CITY           SKY/WX    TMP DP  RH WIND       PRES   REMARKS
BUFFALO          N/A     79  60  52 VRB7G17   29.97F
FAITH            N/A     82  64  54 E10       29.97F
MOBRIDGE       CLOUDY    81  67  62 E20G30    29.92F
$$

SDZ012>016-024>037-041>051-057-063-072>074-192000-
SOUTHWEST AND SOUTH CENTRAL SOUTH DAKOTA

CITY           SKY/WX    TMP DP  RH WIND       PRES   REMARKS
RAPID CTY ARPT SUNNY     90  64  42 N23G36    29.98R
PIERRE         PTSUNNY   87  68  52 NE20G25   29.90R
CUSTER         CLOUDY    95  39  14 W8G21     30.14S
ELLSWORTH AFB  MOSUNNY   89  64  43 N17G26    29.99R
PHILIP         SUNNY     93  69  45 NE31G37   29.87R HX  98
PINE RIDGE     CLOUDY    98  63  31 SW10      29.95F HX 100
SPEARFISH      LGT RAIN  84  64  51 VRB6G15   30.07F
WINNER         FAIR     101  69  35 SE16G22   29.87F HX 107
$$

SDZ004>011-016>023-039-040-192000-
NORTHEAST SOUTH DAKOTA

CITY           SKY/WX    TMP DP  RH WIND       PRES   REMARKS
ABERDEEN       CLOUDY    76  69  79 E15       29.94F
WATERTOWN      CLOUDY    68  67  96 E13G25    29.99R
SISSETON         N/A     68  66  93 SE18G24   29.92F
$$

SDZ017-020-022-023-036>040-048>070-192000-
SOUTHEAST SOUTH DAKOTA

CITY           SKY/WX    TMP DP  RH WIND       PRES   REMARKS
SIOUX FALLS    CLOUDY    78  71  79 N13       29.96R
HURON          CLOUDY    79  68  69 SE8       29.91F
CHAMBERLAIN    SUNNY     95  74  51 E15       29.88F HX 106
MITCHELL       CLOUDY    79  71  76 E20       29.93F
YANKTON        MOSUNNY   91  74  57 SE13      29.91F HX 100
$$

ABBREVIATIONS USED IN REMARKS
   TC - TEMPERATURE IN CELSIUS
  WCI - WIND CHILL INDEX
   HX - HEAT INDEX
  VSB - VISIBILITY





USA.gov is the U.S. government's official web portal to all federal, state and local government web resources and services.